When you browse on this site, cookies collect data to enhance your experience and personalize the content and advertising you see.
Visit our Privacy Policy to learn more. By continuing to use the site, you agree to this use of cookies and data.

Tiempo cada hora Almería

Hoy, 19 Septiembre, Sábado

Tiempo Temperatura Precipitaciones Viento Presión Humedad
00:00 +25°C° 0 mm 4 mps 761 mmHg 80%
01:00 +25°C° 0 mm 4 mps 761 mmHg 77%
02:00 +25°C° 0 mm 4 mps 760 mmHg 75%
03:00 +23°C° 0 mm 4 mps 760 mmHg 72%
04:00 +23°C° 0 mm 4 mps 761 mmHg 71%
05:00 +23°C° 0 mm 4 mps 761 mmHg 71%
06:00 +22°C° 0 mm 4 mps 761 mmHg 70%
07:00 +25°C° 0 mm 5 mps 761 mmHg 60%
08:00 +26°C° 0 mm 5 mps 762 mmHg 50%
09:00 +28°C° 0 mm 5 mps 762 mmHg 40%
10:00 +28°C° 0 mm 6 mps 762 mmHg 39%
11:00 +29°C° 0 mm 6 mps 762 mmHg 37%
12:00 +30°C° 0 mm 7 mps 762 mmHg 35%
13:00 +30°C° 0 mm 7 mps 761 mmHg 37%
14:00 +30°C° 0 mm 7 mps 761 mmHg 38%
15:00 +32°C° 0 mm 7 mps 760 mmHg 40%
16:00 +30°C° 0 mm 7 mps 760 mmHg 43%
17:00 +29°C° 0 mm 6 mps 760 mmHg 47%
18:00 +29°C° 0 mm 5 mps 760 mmHg 50%
19:00 +28°C° 0 mm 5 mps 761 mmHg 54%
20:00 +28°C° 0 mm 4 mps 761 mmHg 57%
21:00 +27°C° 0 mm 4 mps 761 mmHg 60%
22:00 +27°C° 0 mm 4 mps 762 mmHg 62%
23:00 +27°C° 0 mm 3 mps 762 mmHg 64%

Mañana, 20 Septiembre, Domingo

Tiempo Temperatura Precipitaciones Viento Presión Humedad
00:00 +26°C° 0 mm 3 mps 762 mmHg 66%
01:00 +26°C° 0 mm 3 mps 761 mmHg 67%
02:00 +25°C° 0 mm 2 mps 761 mmHg 67%
03:00 +25°C° 0 mm 2 mps 761 mmHg 68%
04:00 +25°C° 0 mm 2 mps 761 mmHg 68%
05:00 +25°C° 0 mm 1 mps 761 mmHg 67%
06:00 +24°C° 0 mm 1 mps 761 mmHg 67%
07:00 +26°C° 0 mm 2 mps 761 mmHg 62%
08:00 +27°C° 0 mm 2 mps 761 mmHg 56%
09:00 +28°C° 0 mm 2 mps 762 mmHg 51%
10:00 +29°C° 0 mm 2 mps 761 mmHg 49%
11:00 +29°C° 0 mm 3 mps 761 mmHg 47%
12:00 +30°C° 0 mm 3 mps 761 mmHg 46%
13:00 +30°C° 0 mm 3 mps 761 mmHg 47%
14:00 +30°C° 0 mm 3 mps 760 mmHg 48%
15:00 +30°C° 0 mm 3 mps 760 mmHg 49%
16:00 +29°C° 0 mm 3 mps 760 mmHg 50%
17:00 +29°C° 0 mm 3 mps 760 mmHg 51%
18:00 +28°C° 0 mm 2 mps 760 mmHg 52%
19:00 +28°C° 0 mm 2 mps 760 mmHg 53%
20:00 +28°C° 0 mm 2 mps 761 mmHg 54%
21:00 +27°C° 0 mm 2 mps 761 mmHg 55%
22:00 +27°C° 0 mm 2 mps 761 mmHg 56%
23:00 +27°C° 0 mm 2 mps 761 mmHg 56%

Pasado mañana, 21 Septiembre, Lunes

Tiempo Temperatura Precipitaciones Viento Presión Humedad
00:00 +27°C° 0 mm 2 mps 761 mmHg 57%
01:00 +26°C° 0 mm 2 mps 761 mmHg 58%
02:00 +26°C° 0 mm 1 mps 760 mmHg 60%
03:00 +26°C° 0 mm 1 mps 760 mmHg 61%
04:00 +25°C° 0 mm 1 mps 760 mmHg 61%
05:00 +25°C° 0 mm 1 mps 760 mmHg 61%
06:00 +25°C° 0 mm 1 mps 760 mmHg 60%
07:00 +26°C° 0 mm 1 mps 760 mmHg 56%
08:00 +27°C° 0 mm 1 mps 761 mmHg 52%
09:00 +28°C° 0 mm 1 mps 761 mmHg 48%
10:00 +29°C° 0 mm 2 mps 761 mmHg 46%
11:00 +30°C° 0 mm 2 mps 760 mmHg 44%
12:00 +30°C° 0 mm 2 mps 760 mmHg 42%
13:00 +30°C° 0 mm 2 mps 760 mmHg 43%
14:00 +30°C° 0 mm 2 mps 760 mmHg 45%
15:00 +30°C° 0 mm 3 mps 759 mmHg 47%
16:00 +30°C° 0 mm 2 mps 759 mmHg 50%
17:00 +29°C° 0 mm 2 mps 759 mmHg 53%
18:00 +28°C° 0 mm 2 mps 759 mmHg 56%
19:00 +28°C° 0 mm 1 mps 759 mmHg 57%
20:00 +28°C° 0 mm 1 mps 759 mmHg 58%
21:00 +28°C° 0 mm 1 mps 760 mmHg 58%
22:00 +27°C° 0 mm 1 mps 759 mmHg 59%
23:00 +27°C° 0 mm 1 mps 759 mmHg 60%

22 Septiembre, Martes

Tiempo Temperatura Precipitaciones Viento Presión Humedad
00:00 +27°C° 0 mm 1 mps 759 mmHg 61%
01:00 +27°C° 0 mm 1 mps 758 mmHg 61%
02:00 +26°C° 0 mm 1 mps 758 mmHg 62%
03:00 +26°C° 0 mm 1 mps 758 mmHg 62%
04:00 +26°C° 0 mm 1 mps 758 mmHg 63%
05:00 +26°C° 0 mm 1 mps 758 mmHg 63%
06:00 +26°C° 0 mm 1 mps 758 mmHg 63%
07:00 +26°C° 0 mm 1 mps 758 mmHg 60%
08:00 +27°C° 0 mm 1 mps 758 mmHg 57%
09:00 +28°C° 0 mm 2 mps 758 mmHg 53%
10:00 +29°C° 0 mm 2 mps 758 mmHg 51%
11:00 +29°C° 0 mm 3 mps 758 mmHg 49%
12:00 +30°C° 0 mm 3 mps 758 mmHg 47%
13:00 +30°C° 0 mm 3 mps 757 mmHg 47%
14:00 +30°C° 0 mm 4 mps 757 mmHg 47%
15:00 +30°C° 0 mm 4 mps 757 mmHg 47%
16:00 +29°C° 0 mm 4 mps 757 mmHg 51%
17:00 +29°C° 0 mm 4 mps 756 mmHg 54%
18:00 +28°C° 0 mm 3 mps 756 mmHg 58%
19:00 +28°C° 0 mm 3 mps 757 mmHg 59%
20:00 +27°C° 0 mm 3 mps 757 mmHg 60%
21:00 +27°C° 0 mm 3 mps 757 mmHg 61%
22:00 +27°C° 0 mm 3 mps 757 mmHg 62%
23:00 +26°C° 0 mm 3 mps 757 mmHg 63%

23 Septiembre, Miércoles

Tiempo Temperatura Precipitaciones Viento Presión Humedad
00:00 +26°C° 0 mm 3 mps 757 mmHg 64%
01:00 +26°C° 0 mm 3 mps 757 mmHg 66%
02:00 +25°C° 0 mm 3 mps 757 mmHg 67%
03:00 +25°C° 0 mm 3 mps 757 mmHg 69%
04:00 +25°C° 0 mm 3 mps 757 mmHg 71%
05:00 +24°C° 0 mm 3 mps 757 mmHg 72%
06:00 +24°C° 0 mm 3 mps 757 mmHg 74%
07:00 +25°C° 0 mm 3 mps 757 mmHg 68%
08:00 +26°C° 0 mm 4 mps 757 mmHg 62%
09:00 +27°C° 0 mm 4 mps 757 mmHg 57%
10:00 +28°C° 0 mm 5 mps 757 mmHg 51%
11:00 +29°C° 0 mm 6 mps 757 mmHg 46%
12:00 +30°C° 0 mm 7 mps 757 mmHg 41%
13:00 +30°C° 0 mm 7 mps 756 mmHg 40%
14:00 +30°C° 0 mm 7 mps 756 mmHg 39%
15:00 +30°C° 0 mm 7 mps 755 mmHg 38%
16:00 +30°C° 0 mm 7 mps 755 mmHg 41%
17:00 +29°C° 0 mm 6 mps 755 mmHg 44%
18:00 +28°C° 0 mm 6 mps 755 mmHg 46%
19:00 +28°C° 0 mm 6 mps 756 mmHg 49%
20:00 +28°C° 0 mm 6 mps 756 mmHg 53%
21:00 +27°C° 0 mm 6 mps 756 mmHg 56%
22:00 +27°C° 0 mm 6 mps 756 mmHg 57%
23:00 +27°C° 0 mm 6 mps 756 mmHg 58%

24 Septiembre, Jueves

Tiempo Temperatura Precipitaciones Viento Presión Humedad
00:00 +27°C° 0 mm 6 mps 755 mmHg 60%
01:00 +26°C° 0 mm 5 mps 755 mmHg 60%
02:00 +26°C° 0 mm 5 mps 755 mmHg 61%
03:00 +26°C° 0 mm 5 mps 754 mmHg 62%
04:00 +25°C° 0 mm 5 mps 754 mmHg 63%
05:00 +25°C° 0 mm 5 mps 755 mmHg 64%
06:00 +23°C° 0 mm 5 mps 755 mmHg 65%
07:00 +24°C° 0 mm 6 mps 755 mmHg 59%
08:00 +26°C° 0 mm 6 mps 755 mmHg 54%
09:00 +27°C° 0 mm 6 mps 755 mmHg 48%
10:00 +28°C° 0 mm 7 mps 755 mmHg 46%
11:00 +29°C° 0 mm 7 mps 755 mmHg 43%
12:00 +31°C° 0 mm 8 mps 755 mmHg 40%
13:00 +31°C° 0 mm 9 mps 754 mmHg 41%
14:00 +31°C° 0 mm 9 mps 754 mmHg 42%
15:00 +31°C° 0 mm 10 mps 754 mmHg 42%
16:00 +29°C° 0 mm 10 mps 754 mmHg 44%
17:00 +29°C° 0 mm 10 mps 754 mmHg 46%
18:00 +28°C° 0 mm 10 mps 754 mmHg 48%
19:00 +28°C° 0 mm 9 mps 754 mmHg 50%
20:00 +27°C° 0 mm 8 mps 755 mmHg 51%
21:00 +26°C° 0 mm 8 mps 756 mmHg 53%
22:00 +26°C° 0 mm 7 mps 756 mmHg 52%
23:00 +24°C° 0 mm 7 mps 756 mmHg 51%
Mostrar más